Flag for U.S.A. Weather past 2 weeks in Wailuku, Hawaii, U.S.A.

Now
86 °F

Partly sunny.


Feels Like: 90 °F
Forecast: 77 / 87 °F
Wind: 22 mph from Northeast

Location: Kahului Airport

Current Time: Aug 1, 2015 at 3:17:54 PM

Latest Report: Aug 1, 2015 at 1:54 PM


Visibility: 10 mi

Pressure: 29.95 "Hg

Humidity: 57%

Dew point: 69 °F

Location of WailukuLocation

Historic Weather in Wailuku — Graph

°F

Wailuku temperature yesterday

Maximum temperature yesterday: 91 °F (at 12:54 PM)
Minimum temperature yesterday: 78 °F (at 3:54 AM)
Average temperature yesterday: 83 °F

Past Weeks' High & Low Weather Summary

 TemperatureHumidityPressure
High93 °F (Jul 28, 12:07 PM)88% (Jul 29, 4:54 AM)30.07 "Hg (Jul 29, 4:54 AM)
Low70 °F (Jul 26, 5:54 AM)44% (Jul 27, 12:54 PM)29.88 "Hg (Jul 29, 4:54 PM)
Average81 °F66%29.97 "Hg
* Reported Jul 17 1:54 PM — Aug 1 1:54 PM, Wailuku, Weather by CustomWeather, © 2015

Note: Actual official high and low records may vary slightly from our data, if they occured in-between our weather recording intervals... More about our weather records

Advertising

Wailuku weather history for previous 24 hours

 ConditionsComfort  
Time TempWeatherWind HumidityBarometerVisibility
1:54 PM
Sat, Aug 1
86 °FPartly sunny.22 mph57%29.95 "Hg10 mi
12:54 PM86 °FBroken clouds.22 mph57%29.97 "Hg10 mi
11:54 AM87 °FScattered clouds.23 mph53%29.97 "Hg10 mi
10:54 AM88 °FScattered clouds.25 mph55%29.99 "Hg10 mi
9:54 AM86 °FScattered clouds.22 mph59%30.00 "Hg10 mi
8:54 AM86 °FScattered clouds.18 mph55%30.00 "Hg10 mi
7:54 AM81 °FScattered clouds.16 mph67%30.00 "Hg10 mi
6:54 AM79 °FScattered clouds.13 mph72%29.98 "Hg10 mi
5:54 AM78 °FPassing clouds.13 mph71%29.96 "Hg10 mi
4:54 AM77 °FPassing clouds.16 mph79%29.96 "Hg10 mi
3:54 AM77 °FMostly cloudy.13 mph74%29.95 "Hg10 mi
2:54 AM79 °FPassing clouds.15 mph69%29.96 "Hg10 mi
1:54 AM78 °FPassing clouds.13 mph76%29.97 "Hg10 mi
12:54 AM79 °FClear.12 mph72%30.00 "Hg10 mi
11:54 PM
Fri, Jul 31
79 °FClear.16 mph74%30.01 "Hg10 mi
10:54 PM78 °FPassing clouds.10 mph79%30.02 "Hg10 mi
9:54 PM79 °FPassing clouds.13 mph74%30.01 "Hg10 mi
8:54 PM80 °FPassing clouds.13 mph69%30.00 "Hg10 mi
7:54 PM80 °FPassing clouds.14 mph69%29.98 "Hg10 mi
6:54 PM81 °FScattered clouds.16 mph67%29.96 "Hg10 mi
5:54 PM83 °FScattered clouds.17 mph65%29.95 "Hg10 mi
4:54 PM86 °FScattered clouds.26 mph57%29.93 "Hg10 mi
3:54 PM88 °FScattered clouds.23 mph54%29.93 "Hg10 mi
Weather by CustomWeather, © 2015

See weather overviewHow to use our weather pages